SL-8 DEB

Satellite information

Favourite Embed

Satellite Type and Status

DEBRISIN ORBIT

Key statistics

Satellite SL-8 DEB at a glance.

Uptime

13356

Days in orbit

Revolutions

≈ 13.8

Per day

Orbit

LEO

Low Earth Orbit

Inclination

83.0

Latest

Satellite identification and parameters

Extended collection of information and parameters for SL-8 DEB.

Object identification

Identified? True

Debris? True

Object name: SL-8 DEB

International designator: 1989-050C

Object number (NORAD): 43336

Object ID (CCSDS): 43336

Country: COMMONWEALTH OF INDEPENDENT STATES (CIS)

Current information (Y/N): Y

RCS size: SMALL

Orbital parameters

Period: 104.355 minutes

Inclination: 82.9541 deg

SMA: 7342.38 km

Apoapsis: 995.28 km

Periapsis: 933.21 km

RAAN: 62.0618 deg

Eccentricy: 0.00422683

Argument of periapsis: 259.3218 deg

Mean anomaly: 100.318 deg

Mean motion: 13.79899502 rev/day

Mean motion (dot): 0.0000075 rev/day2

B* drag term: 0.00070511782 1/REarth

Two-line elements (TLE)

Creation date: Oct. 26, 2025, 2:54 a.m.

Reference frame: TEME

Reference center: EARTH

Epoch: Oct. 25, 2025, 2:20 p.m. UTC

TLE line 0: 0 SL-8 DEB

TLE line 1: 1 43336U 89050C 25298.59789162 .00000750 00000-0 70512-3 0 9994

TLE line 2: 2 43336 82.9541 62.0618 0042268 259.3218 100.3180 13.79899502517262

Live tracking on map

Real-time ground track for satellite SL-8 DEB.

In-orbit conjunctions

A list of the most updated potential collisions computed for object SL-8 DEB.

Target Orbit TCA Probability of collision Miss distance Type
SL-8 R/B LEO 2024-11-15 23:28:25 0.0001366403 219.0 (m) ROCKET BODY
THORAD AGENA D DEB SSO 2024-11-15 08:30:56 0.0004058871 416.0 (m) DEBRIS

Associated space launch

Navigation satellite providing location information for the Tsiklon-B navigation system

SL-8 DEB was lifted into orbit during the mission ‘Kosmos-3M | Parus 65’, on board a Kosmos-3M space rocket.

The launch took place on April 4, 1989, 6:36 p.m. from 132/2.

For more information about the launch, click the button.

Launch to space Kosmos-3M | Parus 65
Kosmos-3M | Parus 65

Agency: N/A

Status: Launch Successful

Launch date: April 4, 1989, 6:36 p.m. UTC

Rocket: Kosmos-3M

Launch pad: 132/2

Location: Plesetsk Cosmodrome, Russian Federation

...

Latest news about this satellite

There are no fresh news available about this satellite. Check back as we update our databases every day.


Newsletter sign-up

Weekly statistics, charts and insights to help you stay on top of the space industry.